User: anonymous   Login
Location: Unspecified
(0.0000°N, 0.0000°E)
Time: 05:31:58
(UTC+00:00)
Language:

COSMOS 2437 - Orbit

View from above orbital plane
View from above orbital plane
View from above satellite
View from above satellite

Ground track
Ground track

The orbit data is extracted from the following two-line orbital elements,

1 32954U 08025B   17177.87742762 +.00000013 +00000-0 +22710-4 0  9994
2 32954 082.5016 234.5967 0019019 276.3413 083.5502 12.42690429412525
Epoch (UTC): 26 June 2017 21:03:29
Eccentricity: 0.0019019
inclination: 82.5016°
perigee height: 1480 km
apogee height: 1510 km
right ascension of ascending node: 234.5967°
argument of perigee: 276.3413°
revolutions per day: 12.42690429
mean anomaly at epoch: 83.5502°
orbit number at epoch: 41252

The dashed part of the orbit path shows where the satellite is in the earth's shadow,  

DLR